    2018-08-21 12:49:55, 239.7, 275.90, 262.70, 215.20, 211.10, 218.50, 237.10, 241.90, 241.30, 239.50, 268.00, 235.70, 251.00, 251.80, 248.60
    2018-08-21 12:50:00, 239.2, 275.10, 259.70, 212.90, 208.30, 214.30, 234.50, 243.30, 236.70, 234.50, 241.60, 231.60, 248.30, 252.00, 240.70
    2018-08-21 12:50:05, 238.2, 271.90, 262.80, 211.70, 207.80, 212.70, 235.30, 237.30, 233.50, 234.70, 235.20, 231.80, 244.80, 251.00, 238.20
    2018-08-21 12:50:10, 238.8, 269.50, 263.50, 221.00, 203.60, 211.10, 234.90, 234.00, 232.60, 233.30, 233.20, 233.70, 246.60, 251.40, 242.20
    2018-08-21 12:50:15, 238.7, 281.00, 255.90, 209.90, 206.30, 211.50, 232.00, 234.50, 231.40, 231.60, 231.80, 231.10, 246.40, 251.10, 238.00
    2018-08-21 12:50:20, 238.8, 358.50, 341.00, 274.50, 268.80, 274.40, 304.50, 305.30, 307.50, 296.90, 296.10, 300.30, 323.60, 344.00, 326.70
    2018-08-21 12:50:25, 238.4, 447.00, 428.50, 349.00, 347.00, 348.70, 383.10, 384.30, 384.50, 384.50, 380.90, 386.70, 410.20, 407.00, 395.80
    2018-08-21 12:50:30, 238.8, 301.70, 281.60, 232.00, 225.00, 223.70, 262.90, 253.40, 250.50, 255.50, 249.00, 256.90, 268.30, 270.90, 264.20
    2018-08-21 12:50:35, 238.9, 276.10, 254.90, 212.90, 207.80, 215.10, 236.50, 236.60, 255.90, 236.80, 234.20, 231.90, 252.10, 249.80, 240.10
    2018-08-21 12:50:40, 238.8, 285.30, 260.60, 217.00, 210.40, 226.70, 232.80, 235.20, 246.90, 232.60, 232.40, 239.30, 264.10, 255.10, 244.70
    2018-08-21 12:50:45, 238.4, 280.40, 255.40, 211.60, 209.90, 210.10, 241.80, 237.50, 240.10, 234.40, 232.60, 232.20, 247.90, 248.40, 248.50
    2018-08-21 12:50:50, 238.4, 270.40, 255.80, 223.50, 206.70, 211.60, 233.70, 238.70, 234.40, 235.10, 232.60, 230.60, 248.60, 245.90, 241.10
    2018-08-21 12:50:55, 238.0, 285.40, 262.40, 210.00, 215.40, 211.00, 230.70, 233.80, 231.60, 230.90, 230.70, 229.80, 245.60, 246.80, 238.60
    2018-08-21 12:51:00, 238.1, 285.90, 256.10, 212.70, 206.70, 212.70, 232.90, 234.60, 232.70, 232.30, 236.30, 235.40, 245.50, 245.70, 239.10
    2018-08-21 12:51:05, 238.1, 269.90, 251.50, 209.40, 206.20, 208.80, 232.10, 233.00, 232.70, 231.20, 239.70, 227.90, 245.30, 244.70, 238.60
    2018-08-21 12:51:10, 237.9, 390.90, 358.70, 290.20, 290.90, 291.30, 318.70, 322.90, 319.50, 318.40, 323.70, 326.10, 348.20, 347.60, 337.00
    2018-08-21 12:51:15, 237.9, 437.80, 414.90, 343.20, 336.40, 335.90, 365.90, 368.00, 369.10, 375.70, 367.80, 369.90, 402.20, 395.90, 392.90
    2018-08-21 12:51:20, 238.4, 273.30, 254.50, 211.50, 206.00, 212.90, 242.70, 236.40, 233.40, 240.30, 233.50, 229.70, 247.10, 248.50, 240.30
    2018-08-21 12:51:25, 238.7, 276.20, 253.30, 210.30, 215.70, 212.10, 248.60, 235.90, 234.80, 232.90, 236.90, 231.80, 247.80, 246.40, 239.70
    2018-08-21 12:51:30, 238.4, 272.20, 250.80, 211.40, 214.90, 221.20, 233.80, 235.70, 235.00, 234.60, 235.90, 231.10, 245.10, 252.10, 239.90
    2018-08-21 12:51:35, 238.7, 270.40, 251.30, 214.20, 210.60, 211.60, 235.40, 235.10, 233.60, 234.30, 232.90, 230.80, 245.10, 246.70, 241.00
    2018-08-21 12:51:40, 238.3, 272.30, 264.30, 212.00, 206.40, 211.10, 238.40, 238.20, 234.20, 232.60, 232.10, 230.30, 246.50, 246.50, 239.60
    2018-08-21 12:51:45, 238.3, 274.60, 252.30, 218.50, 206.90, 215.60, 231.70, 235.20, 238.70, 243.20, 233.20, 228.40, 246.60, 247.90, 238.40
    2018-08-21 12:51:50, 238.1, 274.10, 253.10, 213.20, 204.80, 209.90, 232.30, 235.30, 235.00, 237.60, 232.50, 229.60, 251.80, 246.80, 240.00
    2018-08-21 12:51:55, 238.4, 270.30, 249.10, 211.00, 205.60, 217.60, 230.50, 235.60, 232.20, 232.90, 233.40, 240.40, 244.80, 261.80, 239.80
    2018-08-21 12:52:00, 238.7, 418.90, 395.90, 323.70, 316.80, 321.00, 355.80, 358.10, 352.80, 351.80, 350.80, 349.20, 369.30, 375.70, 375.80
    2018-08-21 12:52:05, 238.3, 391.90, 374.90, 303.00, 301.10, 307.20, 340.00, 353.40, 344.30, 342.00, 345.70, 340.00, 361.10, 354.50, 346.10
    2018-08-21 12:52:10, 235.6, 1869.10, 1831.30, 1437.30, 1428.40, 1418.20, 1553.50, 1553.30, 1539.90, 1633.60, 1677.20, 1496.70, 1744.40, 1732.20, 1693.50
    2018-08-21 12:52:15, 235.1, 2273.90, 2230.70, 1759.10, 1749.10, 1763.60, 1946.60, 1956.00, 1953.50, 1952.60, 1950.20, 1944.40, 2066.70, 2060.20, 2026.30
    2018-08-21 12:52:20, 235.6, 2291.60, 2228.20, 1759.50, 1737.70, 1762.10, 1945.10, 1950.90, 1948.20, 1946.50, 1944.20, 1937.00, 2055.90, 2058.20, 2024.80
    2018-08-21 12:52:25, 235.6, 2272.50, 2244.40, 1766.60, 1740.70, 1767.20, 1949.00, 1956.90, 1953.80, 1969.10, 1956.40, 1941.30, 2066.60, 2074.40, 2041.80
    2018-08-21 12:52:30, 235.6, 2271.60, 2235.60, 1756.40, 1737.10, 1761.00, 1944.00, 1952.00, 1948.70, 1956.90, 1951.60, 1946.10, 2056.80, 2056.90, 2024.60
    2018-08-21 12:52:35, 235.9, 2287.10, 2253.70, 1774.10, 1752.60, 1774.00, 1958.90, 1967.60, 1963.90, 1963.60, 1962.60, 1957.90, 2076.80, 2073.70, 2038.80
    2018-08-21 12:52:40, 235.8, 2287.60, 2252.40, 1772.20, 1757.50, 1778.30, 1961.90, 1967.30, 1973.70, 1963.60, 1961.60, 1959.70, 2076.60, 2072.40, 2039.50
    2018-08-21 12:52:45, 236.0, 2288.20, 2256.80, 1777.60, 1756.50, 1785.50, 1976.00, 1983.90, 1990.60, 1981.50, 1970.40, 1959.10, 2083.50, 2081.50, 2042.90
    2018-08-21 12:52:50, 235.7, 2454.10, 2416.70, 1905.60, 1874.90, 1906.30, 2104.70, 2107.70, 2103.60, 2102.40, 2099.40, 2089.40, 2225.90, 2221.00, 2189.50
    2018-08-21 12:52:55, 235.7, 2370.40, 2343.60, 1851.20, 1823.10, 1853.40, 2049.10, 2063.80, 2044.00, 2035.10, 2033.50, 2021.90, 2154.20, 2156.30, 2118.90
    2018-08-21 12:53:00, 235.2, 2278.10, 2236.40, 1762.70, 1756.20, 1764.30, 1944.20, 1949.80, 1948.90, 1954.40, 1945.70, 1940.10, 2055.90, 2065.30, 2030.00
    2018-08-21 12:53:05, 235.0, 2310.20, 2228.20, 1756.50, 1736.30, 1763.50, 1946.50, 1953.20, 1946.90, 1954.20, 1952.10, 1944.90, 2078.80, 2061.30, 2024.70
    2018-08-21 12:53:10, 235.1, 2271.70, 2246.80, 1757.70, 1738.90, 1764.80, 1949.70, 1958.40, 1952.20, 1954.20, 1952.80, 1934.80, 2065.80, 2065.60, 2025.50
    2018-08-21 12:53:15, 235.3, 2274.60, 2240.00, 1764.00, 1747.40, 1769.40, 1953.50, 1956.60, 1960.70, 1963.90, 1959.00, 1941.00, 2059.60, 2065.80, 2039.70
    2018-08-21 12:53:20, 235.2, 2269.40, 2235.20, 1758.90, 1743.70, 1773.00, 1945.40, 1960.30, 1958.80, 1950.30, 1948.70, 1937.60, 2065.20, 2059.30, 2030.90
    2018-08-21 12:53:25, 235.6, 2275.70, 2246.40, 1765.80, 1743.30, 1764.20, 1963.20, 1967.00, 1954.40, 1961.10, 1954.40, 1951.90, 2074.60, 2064.70, 2027.10
    2018-08-21 12:53:30, 235.5, 2271.30, 2239.40, 1770.20, 1751.90, 1764.40, 1954.60, 1954.80, 1960.40, 1965.90, 1954.50, 1940.40, 2074.30, 2068.40, 2027.60
    2018-08-21 12:53:35, 235.4, 2308.40, 2270.10, 1792.40, 1783.10, 1808.50, 1985.50, 1993.30, 2003.40, 2001.00, 1991.50, 1974.40, 2096.00, 2100.10, 2064.60
    2018-08-21 12:53:40, 235.1, 2435.50, 2393.20, 1894.70, 1865.60, 1890.60, 2088.10, 2095.10, 2091.40, 2092.30, 2089.30, 2081.70, 2208.50, 2203.70, 2171.40
    2018-08-21 12:53:45, 235.8, 2237.10, 2211.60, 1750.70, 1723.60, 1739.70, 1930.90, 1942.50, 1932.80, 1931.10, 1941.30, 1908.20, 2014.70, 2026.70, 1988.60
    2018-08-21 12:53:50, 235.9, 2092.20, 2053.70, 1619.30, 1611.10, 1631.90, 1792.50, 1801.00, 1804.10, 1802.20, 1797.40, 1788.20, 1915.70, 1900.40, 1865.70
    2018-08-21 12:53:55, 235.9, 2085.30, 2064.80, 1621.30, 1609.20, 1625.30, 1790.80, 1797.60, 1791.40, 1792.80, 1791.30, 1782.90, 1896.80, 1893.70, 1869.00
    2018-08-21 12:54:00, 235.6, 2078.60, 2048.60, 1615.00, 1602.30, 1620.40, 1790.40, 1797.30, 1789.30, 1790.00, 1793.50, 1781.70, 1891.90, 1889.90, 1879.70
    2018-08-21 12:54:05, 235.2, 2070.20, 2038.90, 1607.70, 1589.70, 1625.60, 1780.20, 1800.40, 1786.50, 1784.90, 1795.50, 1775.40, 1884.30, 1881.20, 1846.70
    2018-08-21 12:54:10, 235.2, 2073.00, 2038.40, 1614.70, 1597.10, 1611.30, 1780.30, 1792.40, 1795.60, 1798.20, 1782.50, 1776.50, 1883.40, 1886.00, 1855.00
    2018-08-21 12:54:15, 235.3, 2076.90, 2039.80, 1610.00, 1591.60, 1621.10, 1785.10, 1789.80, 1788.80, 1789.90, 1795.50, 1781.00, 1885.00, 1884.00, 1857.80
    2018-08-21 12:54:20, 235.6, 2087.80, 2057.30, 1615.10, 1595.90, 1618.70, 1787.20, 1794.90, 1789.00, 1792.70, 1783.70, 1779.30, 1889.20, 1890.80, 1856.20
    2018-08-21 12:54:25, 235.2, 2147.50, 2122.60, 1692.70, 1661.40, 1690.50, 1862.10, 1870.60, 1868.50, 1863.80, 1863.10, 1847.90, 1964.10, 1968.60, 1929.90
    2018-08-21 12:54:30, 235.1, 2248.10, 2220.30, 1753.60, 1733.90, 1750.50, 1930.70, 1941.20, 1941.60, 1943.00, 1935.80, 1920.80, 2049.00, 2041.70, 2021.40
    2018-08-21 12:54:35, 235.4, 2114.30, 2074.30, 1641.00, 1620.10, 1646.80, 1819.70, 1831.10, 1825.20, 1805.10, 1811.20, 1804.80, 1909.50, 1915.80, 1879.60
    2018-08-21 12:54:40, 235.3, 2085.30, 2052.80, 1620.20, 1596.70, 1618.00, 1794.00, 1802.00, 1801.60, 1785.70, 1789.90, 1776.30, 1891.10, 1897.00, 1865.70
    2018-08-21 12:54:45, 235.3, 2079.00, 2044.70, 1610.60, 1591.90, 1609.30, 1780.20, 1792.80, 1792.80, 1787.10, 1794.30, 1780.60, 1893.90, 1894.70, 1864.20
    2018-08-21 12:54:50, 235.2, 2068.10, 2036.80, 1621.30, 1595.80, 1612.50, 1783.00, 1789.40, 1784.80, 1782.50, 1795.40, 1788.20, 1883.50, 1887.80, 1868.40
    2018-08-21 12:54:55, 235.1, 2078.40, 2042.00, 1611.50, 1596.50, 1618.40, 1781.10, 1785.60, 1784.20, 1791.60, 1784.90, 1778.20, 1877.30, 1883.80, 1848.60
    2018-08-21 12:55:00, 235.0, 2073.70, 2038.00, 1606.90, 1592.50, 1608.80, 1791.60, 1799.50, 1789.30, 1795.40, 1778.50, 1780.00, 1887.20, 1884.10, 1846.60
    2018-08-21 12:55:05, 234.7, 2066.90, 2047.80, 1613.00, 1590.00, 1607.50, 1775.00, 1783.90, 1777.30, 1772.70, 1770.10, 1759.90, 1870.90, 1880.80, 1839.30
    2018-08-21 12:55:10, 234.9, 2067.40, 2045.00, 1607.10, 1596.50, 1610.30, 1779.10, 1788.00, 1789.00, 1786.10, 1785.10, 1783.90, 1882.50, 1890.50, 1860.40
    2018-08-21 12:55:15, 234.4, 2186.50, 2145.30, 1692.90, 1673.10, 1694.30, 1864.50, 1870.50, 1870.80, 1866.10, 1865.70, 1855.10, 1968.70, 1967.90, 1933.50
    2018-08-21 12:55:20, 234.4, 2224.30, 2183.70, 1719.60, 1704.10, 1721.90, 1906.20, 1914.10, 1909.50, 1906.60, 1907.90, 1900.50, 2021.80, 2016.50, 1985.20
    2018-08-21 12:55:25, 234.3, 2070.30, 2036.30, 1606.80, 1585.00, 1604.20, 1775.40, 1781.50, 1784.50, 1773.40, 1771.80, 1768.30, 1874.50, 1871.80, 1842.70
    2018-08-21 12:55:30, 234.3, 2055.80, 2028.60, 1600.60, 1581.70, 1600.20, 1768.50, 1773.30, 1778.30, 1790.30, 1777.70, 1763.90, 1872.80, 1874.40, 1846.60
    2018-08-21 12:55:35, 234.4, 2048.00, 2011.00, 1591.10, 1572.60, 1592.70, 1789.40, 1766.90, 1764.40, 1762.80, 1761.50, 1763.20, 1861.40, 1859.90, 1830.40
    2018-08-21 12:55:40, 235.2, 2074.40, 2029.40, 1603.00, 1592.20, 1612.30, 1771.50, 1789.50, 1775.90, 1775.50, 1773.70, 1768.10, 1875.30, 1876.20, 1842.80
    2018-08-21 12:55:45, 235.5, 2068.30, 2040.80, 1604.10, 1588.80, 1604.00, 1771.90, 1778.90, 1777.90, 1775.60, 1775.80, 1766.20, 1875.80, 1876.20, 1841.60
    2018-08-21 12:55:50, 235.5, 2071.00, 2040.10, 1604.40, 1586.90, 1604.50, 1775.60, 1779.90, 1777.10, 1776.60, 1777.40, 1765.10, 1875.90, 1874.50, 1852.40
    2018-08-21 12:55:55, 235.5, 2073.60, 2038.20, 1606.60, 1595.00, 1609.50, 1778.90, 1782.10, 1779.50, 1784.00, 1781.10, 1770.40, 1881.50, 1873.90, 1851.10
    2018-08-21 12:56:00, 235.3, 2069.20, 2022.40, 1601.50, 1583.30, 1603.40, 1768.80, 1786.60, 1775.30, 1771.80, 1772.30, 1763.00, 1871.30, 1872.10, 1839.70
    2018-08-21 12:56:05, 234.8, 2185.20, 2149.90, 1697.30, 1676.50, 1698.30, 1874.10, 1882.40, 1875.40, 1874.00, 1872.20, 1862.10, 1976.20, 1976.10, 1941.10
    2018-08-21 12:56:10, 234.8, 2170.20, 2133.00, 1695.10, 1671.90, 1692.80, 1867.70, 1884.90, 1873.40, 1872.40, 1872.70, 1863.00, 1968.20, 1968.10, 1949.60
    2018-08-21 12:56:15, 235.0, 2058.20, 2019.20, 1595.70, 1580.00, 1599.60, 1766.20, 1791.20, 1774.90, 1768.50, 1769.40, 1759.30, 1868.90, 1866.50, 1839.30
    2018-08-21 12:56:20, 235.0, 2055.40, 2018.70, 1602.90, 1576.50, 1604.40, 1765.40, 1770.70, 1776.10, 1770.60, 1770.70, 1757.50, 1868.70, 1867.40, 1834.60
    2018-08-21 12:56:25, 234.8, 2056.90, 2019.40, 1598.70, 1579.00, 1600.60, 1764.40, 1780.30, 1771.80, 1766.20, 1768.60, 1760.20, 1865.90, 1866.20, 1833.50
    2018-08-21 12:56:30, 235.2, 2073.90, 2033.70, 1611.40, 1612.20, 1612.50, 1781.60, 1801.40, 1781.60, 1781.00, 1780.10, 1768.40, 1885.10, 1879.70, 1852.20
    2018-08-21 12:56:35, 235.2, 2059.50, 2043.80, 1601.50, 1579.10, 1606.40, 1766.10, 1774.90, 1774.00, 1773.70, 1778.70, 1759.00, 1871.70, 1877.10, 1841.50
    2018-08-21 12:56:40, 235.4, 2065.00, 2026.90, 1613.10, 1584.60, 1603.70, 1770.40, 1776.40, 1774.80, 1774.50, 1771.50, 1762.80, 1873.60, 1872.60, 1843.60
    2018-08-21 12:56:45, 234.9, 2059.00, 2017.40, 1598.00, 1578.40, 1598.50, 1764.60, 1775.00, 1781.40, 1770.30, 1767.80, 1765.40, 1870.40, 1871.60, 1842.00
    2018-08-21 12:56:50, 234.7, 2084.10, 2034.30, 1608.80, 1589.20, 1613.20, 1779.40, 1781.40, 1776.20, 1777.00, 1773.20, 1764.20, 1871.70, 1882.40, 1851.40
    2018-08-21 12:56:55, 234.8, 2236.40, 2186.20, 1727.70, 1708.30, 1729.90, 1907.50, 1914.30, 1913.30, 1915.40, 1911.80, 1901.40, 2016.70, 2022.70, 1983.90
    2018-08-21 12:57:00, 235.1, 2147.80, 2097.30, 1662.40, 1640.10, 1663.00, 1836.30, 1843.20, 1844.00, 1843.60, 1845.30, 1834.90, 1967.00, 1956.60, 1919.20
    2018-08-21 12:57:05, 234.8, 2055.30, 2016.40, 1594.20, 1579.00, 1595.20, 1761.80, 1774.30, 1766.10, 1765.20, 1764.90, 1755.20, 1864.30, 1864.20, 1833.70
    2018-08-21 12:57:10, 234.7, 2053.40, 2018.80, 1593.60, 1595.90, 1595.00, 1762.20, 1767.10, 1768.40, 1769.40, 1763.80, 1758.10, 1869.10, 1868.90, 1836.20
    2018-08-21 12:57:15, 235.0, 2060.50, 2028.60, 1594.90, 1579.70, 1605.30, 1773.40, 1773.00, 1768.50, 1766.60, 1765.70, 1756.90, 1870.90, 1868.80, 1838.40
    2018-08-21 12:57:20, 235.1, 2062.70, 2028.60, 1600.70, 1585.50, 1604.60, 1770.20, 1778.20, 1774.60, 1775.50, 1770.30, 1765.20, 1872.60, 1876.60, 1843.90
    2018-08-21 12:57:25, 234.6, 2053.10, 2016.10, 1595.40, 1574.20, 1597.30, 1767.60, 1770.70, 1769.30, 1778.90, 1764.10, 1756.90, 1866.60, 1870.40, 1847.20
    2018-08-21 12:57:30, 234.7, 2050.10, 2011.50, 1592.00, 1573.70, 1597.10, 1761.80, 1769.10, 1766.80, 1768.20, 1765.60, 1766.40, 1864.70, 1859.40, 1846.30
    2018-08-21 12:57:35, 235.0, 2052.60, 2016.50, 1596.30, 1578.50, 1606.20, 1765.40, 1773.30, 1770.30, 1766.60, 1766.80, 1755.90, 1872.90, 1866.20, 1834.30
    2018-08-21 12:57:40, 238.0, 232.60, 220.40, 198.10, 202.40, 218.10, 248.60, 261.80, 271.60, 287.00, 290.40, 297.00, 330.10, 340.80, 342.90
    2018-08-21 12:57:45, 238.1, 191.50, 174.30, 148.10, 143.80, 154.70, 161.10, 162.70, 160.80, 166.70, 168.90, 168.60, 178.20, 178.30, 169.40
    2018-08-21 12:57:50, 238.3, 236.00, 211.20, 184.60, 179.70, 185.60, 199.80, 197.70, 193.30, 196.50, 196.30, 196.10, 210.20, 211.00, 204.90
    2018-08-21 12:57:55, 238.5, 82.00, 61.60, 60.30, 64.80, 72.60, 82.60, 78.50, 87.00, 75.20, 77.80, 72.70, 78.90, 77.90, 72.30
    2018-08-21 12:58:00, 238.2, 71.80, 54.00, 54.50, 55.50, 61.70, 68.20, 62.00, 62.00, 60.60, 61.80, 58.90, 65.10, 67.20, 60.30
    2018-08-21 12:58:05, 238.1, 73.10, 70.50, 56.50, 56.70, 69.00, 63.70, 65.50, 68.10, 66.00, 90.90, 61.90, 80.40, 70.60, 61.50
    2018-08-21 12:58:10, 238.3, 73.20, 51.60, 55.50, 55.20, 57.60, 62.60, 64.10, 63.10, 61.90, 76.40, 61.00, 67.70, 89.50, 62.30
    2018-08-21 12:58:15, 238.3, 74.30, 58.80, 58.40, 53.30, 62.10, 69.70, 69.40, 63.60, 64.50, 64.20, 67.00, 66.90, 68.50, 65.60
    2018-08-21 12:58:20, 238.5, 73.80, 51.30, 57.70, 53.30, 56.60, 63.40, 63.40, 62.40, 74.90, 63.40, 59.60, 66.50, 74.40, 62.80
    2018-08-21 12:58:25, 238.9, 72.70, 54.30, 56.90, 54.40, 55.70, 68.70, 69.60, 62.00, 68.70, 60.30, 64.50, 66.10, 69.60, 59.80
    2018-08-21 12:58:30, 239.5, 78.10, 53.20, 58.90, 57.90, 64.30, 66.00, 70.00, 69.00, 66.10, 66.90, 62.90, 68.50, 69.40, 62.40
    2018-08-21 12:58:35, 239.4, 223.80, 196.90, 172.30, 168.00, 173.40, 199.00, 202.10, 199.70, 197.30, 196.30, 194.50, 206.20, 205.50, 204.80
    2018-08-21 12:58:40, 239.3, 195.00, 160.10, 140.40, 129.30, 135.00, 147.80, 150.60, 149.50, 151.90, 152.30, 151.50, 162.40, 164.10, 159.20
    2018-08-21 12:58:45, 239.6, 83.40, 53.90, 57.80, 54.60, 59.20, 63.50, 65.40, 64.40, 64.70, 62.60, 63.80, 81.20, 71.30, 61.70
    2018-08-21 12:58:50, 239.7, 82.70, 54.40, 57.10, 57.80, 62.90, 69.00, 69.40, 63.70, 65.30, 66.10, 62.20, 68.00, 73.90, 64.50
    2018-08-21 12:58:55, 240.0, 73.90, 51.90, 57.10, 53.80, 66.50, 64.00, 63.20, 63.40, 69.00, 61.40, 60.40, 66.80, 67.90, 71.40
    2018-08-21 12:59:00, 239.8, 75.30, 50.50, 58.90, 54.40, 57.40, 62.90, 64.50, 64.00, 61.60, 61.80, 60.50, 83.90, 65.80, 62.20
    2018-08-21 12:59:05, 239.4, 74.30, 51.20, 57.40, 53.30, 61.60, 61.80, 65.60, 62.00, 60.50, 62.70, 60.30, 69.90, 67.70, 61.50
    2018-08-21 12:59:10, 239.1, 73.50, 52.80, 57.10, 54.90, 58.80, 75.20, 65.30, 74.60, 63.60, 63.80, 60.80, 67.10, 67.00, 64.00
    2018-08-21 12:59:15, 239.3, 74.20, 53.20, 57.10, 59.30, 57.10, 62.30, 64.70, 61.60, 61.40, 62.30, 60.80, 65.50, 68.50, 64.90
    2018-08-21 12:59:20, 239.5, 84.30, 81.90, 74.70, 69.00, 83.90, 83.40, 83.70, 77.00, 74.80, 73.70, 72.30, 76.30, 77.40, 71.90
    2018-08-21 12:59:25, 239.2, 247.50, 222.70, 198.60, 188.40, 196.40, 212.90, 211.90, 211.60, 210.70, 212.80, 209.70, 221.70, 223.70, 216.30
    2018-08-21 12:59:30, 239.4, 151.30, 128.00, 118.40, 115.20, 119.70, 128.10, 122.90, 122.10, 123.40, 135.10, 121.30, 130.10, 132.60, 144.40
    2018-08-21 12:59:35, 239.8, 75.60, 54.50, 64.20, 53.80, 57.10, 63.40, 62.80, 62.30, 60.50, 61.80, 65.40, 65.90, 67.90, 70.20
    2018-08-21 12:59:40, 239.8, 75.10, 56.70, 63.30, 55.20, 61.10, 62.60, 66.60, 63.90, 64.10, 62.80, 74.90, 67.70, 67.80, 63.50
    2018-08-21 12:59:45, 239.9, 74.90, 51.50, 57.40, 55.60, 58.30, 64.30, 66.70, 69.60, 78.40, 64.30, 60.50, 80.10, 67.40, 62.60
    2018-08-21 12:59:50, 240.0, 78.60, 54.00, 58.50, 61.40, 59.50, 64.80, 66.00, 65.00, 63.00, 71.20, 60.00, 70.20, 75.60, 64.60
    2018-08-21 12:59:55, 239.7, 74.80, 53.50, 56.80, 53.40, 59.40, 70.10, 77.50, 64.80, 69.30, 70.20, 61.50, 65.50, 68.30, 61.60
    2018-08-21 13:00:00, 239.9, 77.10, 56.10, 57.90, 67.90, 59.50, 65.60, 81.30, 65.20, 68.00, 66.10, 64.60, 70.50, 70.80, 67.00
    2018-08-21 13:00:05, 239.5, 76.70, 55.60, 61.60, 62.60, 62.10, 72.40, 70.30, 63.60, 65.10, 65.20, 61.60, 76.00, 67.70, 73.10
    2018-08-21 13:00:10, 239.3, 130.10, 106.20, 98.60, 95.00, 98.10, 107.80, 107.20, 105.50, 103.60, 103.70, 98.40, 106.70, 132.50, 115.40
    2018-08-21 13:00:15, 238.4, 261.40, 238.40, 202.30, 203.30, 204.50, 234.80, 232.60, 230.00, 231.90, 223.20, 218.60, 236.80, 240.40, 227.00
    2018-08-21 13:00:20, 239.0, 108.20, 83.40, 82.40, 84.60, 90.70, 95.90, 96.40, 94.90, 95.50, 94.30, 106.30, 111.60, 117.00, 89.50
    2018-08-21 13:00:25, 239.2, 81.90, 54.60, 65.70, 59.50, 58.50, 66.60, 65.00, 72.70, 63.30, 65.40, 68.40, 72.20, 69.90, 65.60
    2018-08-21 13:00:30, 239.0, 75.00, 62.20, 59.20, 57.20, 60.30, 75.20, 71.90, 70.10, 78.00, 78.10, 66.00, 75.90, 72.00, 69.30
    2018-08-21 13:00:35, 238.9, 71.70, 50.50, 56.40, 53.40, 62.50, 76.40, 64.60, 63.20, 63.50, 63.90, 70.40, 65.70, 64.40, 61.50
    2018-08-21 13:00:40, 239.6, 75.30, 54.30, 70.90, 58.80, 66.60, 69.60, 74.70, 70.20, 65.50, 67.90, 61.90, 66.40, 66.50, 63.80
    2018-08-21 13:00:45, 239.7, 77.20, 54.60, 70.40, 55.10, 61.20, 67.50, 69.80, 68.60, 66.20, 64.20, 63.40, 65.00, 69.30, 64.20
    2018-08-21 13:00:50, 239.7, 84.40, 52.00, 58.40, 53.60, 57.00, 61.90, 65.80, 63.30, 60.70, 60.80, 61.60, 65.60, 66.70, 62.50
    2018-08-21 13:00:55, 239.7, 82.60, 55.50, 59.20, 63.60, 61.20, 65.60, 62.90, 62.90, 64.80, 60.40, 60.70, 65.70, 72.80, 60.90
    2018-08-21 13:01:00, 239.4, 171.70, 143.70, 130.30, 124.90, 129.90, 140.10, 142.90, 140.60, 144.10, 137.70, 133.40, 143.60, 143.00, 149.50
    2018-08-21 13:01:05, 239.2, 250.00, 222.40, 193.30, 187.00, 194.90, 217.20, 215.80, 212.40, 209.70, 206.00, 205.00, 224.20, 221.40, 216.10
    2018-08-21 13:01:10, 239.6, 75.30, 52.50, 68.80, 63.70, 74.10, 82.00, 80.10, 82.50, 73.60, 62.50, 59.50, 66.40, 66.90, 63.10
    2018-08-21 13:01:15, 239.2, 89.40, 54.80, 58.00, 56.20, 58.10, 78.00, 65.50, 65.30, 61.60, 65.70, 60.30, 67.50, 67.60, 65.00
    2018-08-21 13:01:20, 238.8, 78.60, 79.90, 58.90, 59.30, 61.50, 78.50, 67.40, 72.20, 69.90, 58.90, 63.30, 68.20, 77.60, 66.60
    2018-08-21 13:01:25, 239.1, 76.80, 58.90, 57.40, 55.20, 59.00, 70.30, 67.00, 63.90, 82.00, 61.20, 61.40, 66.10, 72.40, 63.90
    2018-08-21 13:01:30, 239.4, 76.20, 49.60, 59.80, 58.10, 58.50, 81.60, 65.80, 63.20, 64.60, 63.50, 62.90, 75.10, 72.70, 64.30
    2018-08-21 13:01:35, 239.3, 72.10, 53.70, 57.50, 54.20, 58.30, 65.30, 64.70, 64.50, 64.40, 75.50, 63.50, 73.10, 68.80, 61.90
    2018-08-21 13:01:40, 239.4, 87.40, 56.90, 61.20, 59.30, 67.50, 70.80, 69.70, 69.20, 64.80, 73.40, 66.10, 73.90, 76.60, 78.40
    2018-08-21 13:01:45, 239.4, 80.10, 57.80, 63.40, 59.70, 58.70, 72.00, 70.90, 69.70, 70.80, 70.00, 62.70, 75.60, 72.80, 66.60
    2018-08-21 13:01:50, 239.2, 164.60, 148.60, 133.70, 127.90, 131.10, 153.20, 159.00, 136.70, 145.00, 145.60, 136.00, 143.10, 146.50, 140.40
    2018-08-21 13:01:55, 238.8, 252.30, 222.70, 234.70, 185.80, 186.50, 222.00, 217.80, 211.70, 224.20, 218.30, 210.70, 235.80, 246.10, 217.50
    2018-08-21 13:02:00, 238.4, 336.50, 333.90, 247.60, 246.90, 244.80, 276.50, 268.70, 267.60, 265.00, 251.70, 250.10, 284.50, 324.80, 278.80
    2018-08-21 13:02:05, 238.4, 369.60, 332.90, 247.10, 240.50, 243.40, 281.00, 273.90, 272.10, 270.20, 254.50, 252.80, 289.30, 340.50, 292.00
    2018-08-21 13:02:10, 238.5, 299.80, 312.80, 251.60, 257.90, 227.10, 257.10, 268.60, 257.00, 271.50, 279.60, 289.00, 302.00, 309.90, 289.30
    2018-08-21 13:02:15, 238.2, 290.60, 295.60, 228.30, 228.80, 223.70, 249.00, 248.20, 249.50, 258.10, 250.50, 252.40, 269.50, 271.20, 266.10
    2018-08-21 13:02:20, 237.8, 306.90, 295.10, 218.90, 229.50, 223.80, 249.90, 250.80, 257.10, 260.30, 241.10, 247.20, 259.60, 259.50, 255.10
    2018-08-21 13:02:25, 238.1, 294.80, 305.50, 226.20, 222.50, 224.60, 243.00, 295.50, 246.50, 254.50, 277.20, 247.10, 276.70, 286.30, 266.10
    2018-08-21 13:02:30, 238.5, 284.20, 290.00, 218.40, 218.30, 214.90, 242.50, 256.70, 242.30, 242.80, 244.30, 240.10, 259.30, 254.80, 256.70
    2018-08-21 13:02:35, 238.2, 273.50, 280.80, 210.80, 214.60, 215.80, 241.90, 240.80, 239.50, 237.50, 235.30, 234.50, 247.70, 244.60, 245.00
    2018-08-21 13:02:40, 237.5, 434.70, 428.40, 331.60, 327.70, 333.00, 375.50, 367.70, 368.60, 366.00, 371.90, 364.70, 385.70, 380.90, 381.40
    2018-08-21 13:02:45, 237.6, 397.90, 393.20, 311.40, 295.80, 292.20, 326.30, 321.90, 323.20, 323.60, 320.60, 321.10, 342.60, 341.70, 342.70
    2018-08-21 13:02:50, 237.5, 270.20, 272.80, 212.20, 211.10, 206.30, 234.80, 236.00, 234.30, 234.40, 238.00, 234.40, 249.40, 245.90, 243.40
    2018-08-21 13:02:55, 237.4, 282.40, 283.30, 215.00, 225.20, 210.20, 233.60, 228.70, 239.20, 228.50, 234.30, 222.80, 241.80, 246.00, 242.30
    2018-08-21 13:03:00, 237.5, 270.10, 286.50, 208.50, 203.10, 212.40, 235.40, 234.10, 235.20, 239.10, 231.80, 231.50, 242.00, 243.70, 257.90
    2018-08-21 13:03:05, 237.6, 273.80, 275.80, 222.30, 205.70, 218.00, 225.10, 230.90, 229.10, 224.60, 235.00, 228.20, 238.50, 242.10, 266.20
    2018-08-21 13:03:10, 237.4, 269.30, 275.00, 212.20, 217.20, 210.20, 237.90, 233.00, 236.30, 232.00, 227.80, 236.80, 241.70, 239.60, 241.50
    2018-08-21 13:03:15, 237.5, 266.10, 272.20, 208.20, 207.90, 207.80, 230.40, 229.60, 238.70, 227.80, 226.10, 224.70, 239.60, 241.90, 237.50
    2018-08-21 13:03:20, 237.3, 345.60, 394.10, 295.50, 281.80, 286.50, 311.50, 279.60, 274.50, 263.60, 251.70, 236.10, 243.60, 250.60, 249.80
    2018-08-21 13:03:25, 234.1, 2286.20, 2342.80, 1835.20, 1817.10, 1843.90, 2036.90, 2041.90, 2044.20, 2038.90, 2035.50, 2026.70, 2148.60, 2007.70, 1968.60
    2018-08-21 13:03:30, 233.9, 2379.90, 2367.60, 1852.60, 1842.90, 1855.40, 2036.10, 2049.60, 2042.70, 2042.00, 2043.50, 2032.60, 2160.30, 2169.70, 2143.50